Location: Bartlow
(52.0833°N, 0.3167°E)
Time: 05:50:40
(UTC+00:00)

Meteor 2-17 Rocket - Pass Details

Date: 25 April 2024
Orbit: 934 x 957 km, 82.5° (Epoch: 25 May)

Event Time Altitude Azimuth Distance (km) Brightness Sun altitude
Exits shadow 03:14:36 12° 255° (WSW) 2,509 6.1 -11.9°
Maximum altitude 03:18:37 22° 301° (WNW) 1,941 5.9 -11.5°
Drops below altitude 10° 03:23:15 10° 350° (N) 2,670 7.2 -10.9°
Sets 03:26:23 0° 6° (N) 3,615 8.2 -10.5°
